Location: Baia Mare
(47.6567°N, 23.5850°E)
Time: 14:38:41
(UTC+03:00)

ISS - Pass Details

Date: 07 July 2019
Orbit: 409 x 418 km, 51.6° (Epoch: 21 July)

Event Time Altitude Azimuth Distance (km) Brightness Sun altitude
Exits shadow 03:31:55 32° 222° (SW) 734 -3.1 -14.6°
Maximum altitude 03:33:14 63° 152° (SSE) 461 -3.8 -14.5°
Drops below altitude 10° 03:36:32 10° 70° (ENE) 1,479 -0.2 -14.2°
Sets 03:38:38 0° 67° (ENE) 2,341 1.0 -14.0°
